Cloud_Cover
100 100 100 100 100 100 100 100 100 89 36 58 42 2 3 100 4 1 4 2 3 0 0 0 0 4 47 50 92 12 5 40 54 5 5 2 1 0 0 0 0 0 0 1 6
100 100 100 100 100 100 100 100 100 100 68 6 18 2 2 100 5 2 3 4 4 5 3 0 0 0 5 97 100 95 82 79 100 5 5 5 5 5 0 0 0 0 0 0 0
100 100 100 100 100 100 100 100 100 100 98 5 18 0 4 13 18 14 6 4 5 5 5 2 0 0 0 5 100 100 100 100 78 6 5 5 5 5 1 0 0 0 0 0 0
100 100 100 100 100 100 100 100 100 100 13 61 47 2 5 5 6 100 37 5 5 5 31 7 6 0 0 0 4 99 100 100 99 92 81 99 86 14 9 5 5 4 5 0 0
100 100 100 100 100 100 100 100 100 100 100 95 62 8 3 5 5 71 9 5 5 5 8 100 37 44 2 0 0 0 14 77 100 100 100 100 100 94 62 8 25 13 5 5 0
100 100 100 99 100 100 100 100 83 100 100 53 100 99 4 8 7 5 6 5 10 5 5 71 100 100 100 6 0 0 0 0 0 18 100 20 68 1 33 97 89 50 31 9 0
7 100 100 99 88 99 28 100 99 100 95 100 100 100 6 20 73 90 5 5 12 8 14 47 92 100 100 100 47 0 0 0 0 0 0 0 0 0 0 65 100 100 92 5 0
5 10 76 100 48 8 29 48 91 100 100 100 97 99 82 37 95 13 17 5 5 5 66 16 12 53 100 100 100 70 0 0 4 4 0 0 5 0 0 0 34 66 26 27 0
0 0 6 48 8 70 22 11 99 63 100 75 94 100 100 100 38 5 6 100 73 28 5 11 12 6 42 99 100 100 49 3 1 5 5 23 5 2 5 20 4 1 0 0 5
0 0 0 0 0 1 51 100 50 80 95 60 18 95 43 65 100 70 62 6 5 5 5 5 5 10 5 31 100 73 82 26 13 14 74 71 68 34 5 3 0 4 4 4 1
4 0 0 0 0 0 8 1 100 91 5 5 48 20 18 100 36 40 100 100 96 5 2 5 5 5 5 5 47 100 81 100 77 100 100 100 100 100 32 5 74 8 64 79 4
4 2 0 0 0 2 3 0 2 95 100 77 40 95 71 4 14 100 8 100 100 100 3 0 3 0 0 5 22 41 59 88 98 100 100 100 100 100 98 5 20 100 94 7 5
0 0 0 0 6 28 0 0 0 0 43 100 100 100 5 11 5 42 58 98 51 6 23 3 0 3 0 0 3 5 5 45 38 99 100 100 100 100 100 100 90 96 27 5 5
0 0 0 0 50 0 0 0 0 0 0 0 4 78 17 66 3 5 58 99 5 38 18 20 2 90 0 0 0 0 1 4 5 96 100 100 100 100 100 100 100 98 100 34 5
0 0 0 60 65 2 0 0 0 0 0 0 0 0 77 4 99 5 58 5 33 5 100 96 14 10 0 0 0 0 0 0 5 39 88 100 100 80 91 17 99 91 17 26 70
2 2 4 17 10 18 0 0 0 0 0 0 0 0 0 82 100 33 5 5 5 0 7 26 8 4 0 0 0 0 34 14 0 0 5 19 100 6 56 6 36 43 5 56 85
80 100 25 64 5 0 0 0 0 0 0 0 0 1 0 0 40 100 23 5 5 11 2 96 100 100 89 0 0 3 2 29 5 0 3 6 56 5 73 5 5 6 81 100 100
3 76 4 7 0 0 0 0 0 0 0 0 0 13 1 0 0 6 96 5 5 5 0 1 51 53 100 88 100 6 3 1 1 0 0 0 0 5 26 35 5 24 6 59 73
20 7 0 0 0 21 6 0 0 1 2 0 0 5 100 2 0 0 1 92 5 9 100 6 83 68 57 50 6 13 4 2 0 0 0 5 0 0 1 5 5 5 5 26 74
88 0 1 0 18 46 1 0 0 1 3 1 0 0 99 81 0 0 0 11 9 4 3 85 59 97 100 100 100 72 5 0 0 0 8 8 98 69 5 4 5 4 1 85 100
54 2 28 33 8 2 3 2 1 0 0 1 7 5 99 100 17 0 0 0 2 9 2 0 36 100 100 100 100 100 100 4 0 0 4 30 50 36 0 3 0 55 100 100 100
7 8 30 98 14 5 5 5 5 2 0 8 28 71 98 100 100 5 0 0 0 0 5 5 0 5 64 100 100 100 68 16 7 5 5 5 88 10 14 0 7 100 100 100 100
36 46 53 67 30 7 12 18 5 2 0 7 100 100 100 100 100 94 0 0 0 0 0 0 0 0 0 22 94 100 100 100 100 75 6 71 68 1 0 31 94 100 100 100 93
58 71 75 80 63 61 64 87 86 4 0 10 100 100 100 100 100 100 14 0 0 0 0 0 0 0 2 1 4 61 100 100 100 100 72 85 15 0 0 37 86 77 87 32 3
81 63 98 93 50 96 80 35 100 56 1 38 100 100 100 100 100 100 20 0 0 0 0 0 0 0 0 4 5 0 0 6 99 100 100 100 15 5 11 29 73 64 50 27 0
95 72 99 75 73 78 98 43 100 46 3 59 100 100 100 100 100 100 44 0 0 0 0 0 0 0 5 0 0 0 0 0 0 2 5 5 5 5 93 99 98 72 20 2 21
99 45 56 99 100 100 65 17 85 99 11 32 100 100 100 100 100 100 92 13 1 0 0 0 0 0 20 4 0 1 0 0 0 0 0 10 0 60 80 100 100 35 51 45 100